Location: České Budějovice
(48.9757°N, 14.4803°E)
Time: 06:57:07
(UTC+02:00)

ISS - Visible Passes

Search period start: 01 April 2020 00:00
Search period end: 11 April 2020 00:00
Orbit: 416 x 423 km, 51.6° (Epoch: 01 April)

Date Brightness Start Highest point End Pass type
(mag) Time Alt. Az. Time Alt. Az. Time Alt. Az.
01 Apr -3.4 21:00:07 10° WNW 21:03:25 56° SSW 21:04:45 31° SE visible
02 Apr -3.7 20:12:42 10° WNW 20:16:03 78° SSW 20:19:21 10° ESE visible
02 Apr -1.6 21:50:07 10° W 21:52:19 18° SW 21:52:19 18° SW visible
03 Apr -2.1 21:02:22 10° W 21:05:14 26° SW 21:06:57 17° S visible
04 Apr -2.6 20:14:47 10° WNW 20:17:56 38° SSW 20:21:04 10° SE visible
05 Apr -1.0 21:05:34 10° WSW 21:06:48 12° SW 21:08:02 10° SSW visible
06 Apr -1.3 20:17:15 10° W 20:19:35 18° SW 20:21:54 10° S visible
